Weather History for Gustavus, AK

Change the Weather History Date:

Sunday, January 9, 2011

  Actual Average Record
Temperature  
Mean Temperature 27 °F -  
Max Temperature 37 °F 29 °F 44 °F (1992)
Min Temperature 17 °F 18 °F -15 °F (1950)
Degree Days  
Heating Degree Days 38    
Moisture  
Dew Point 13 °F    
Average Humidity 62    
Maximum Humidity 93    
Minimum Humidity 30    
Precipitation  
Precipitation 0.00 in - - ()
Sea Level Pressure  
Sea Level Pressure 30.61 in    
Wind  
Wind Speed 1 mph (NE)    
Max Wind Speed 10 mph    
Max Gust Speed -    
Visibility 10 miles    
Events      
Averages and records for this station are not official NWS values.
T = Trace of Precipitation, MM = Missing Value Source: NWS Daily Summary

Daily Weather History Graph

Daily Weather History Graph

Search for Another Location

Airport:

Trip Planner

Search our weather history database for the weather conditions in past years. The results will help you decide how hot, cold, wet, or windy it might be!

Date:

Astronomy

Jan. 09, 2011 Rise Set
Actual Time 8:46 AM AKST 3:34 PM AKST
Civil Twilight 7:55 AM AKST 4:24 PM AKST
Nautical Twilight 7:03 AM AKST 5:16 PM AKST
Astronomical Twilight 6:15 AM AKST 6:05 PM AKST
Moon 9:57 AM AKST (1/9) 10:43 PM AKST (1/9)
Length of Visible Light 8h 29m
Length of Day
6h 48m
Waxing Crescent, 26% of the Moon is Illuminated
Jan 9
Waxing Crescent
Jan 12
First Quarter
Jan 19
Full
Jan 26
Last Quarter
Feb 2
New

Hourly Weather History & Observations

Time (AKST) Temp. Windchill Dew Point Humidity Pressure Visibility Wind Dir Wind Speed Gust Speed Precip Events Conditions
12:16 AM 19.4 °F - 15.8 °F 86% 30.58 in 10.0 mi Calm Calm - N/A   Clear
12:36 AM 19.4 °F - 15.8 °F 86% 30.58 in 10.0 mi Calm Calm - N/A   Clear
12:56 AM 19.4 °F - 15.8 °F 86% 30.59 in 10.0 mi Calm Calm - N/A   Clear
1:16 AM 19.4 °F - 15.8 °F 86% 30.59 in 10.0 mi Calm Calm - N/A   Clear
1:36 AM 17.6 °F - 15.8 °F 93% 30.59 in 10.0 mi Calm Calm - N/A   Clear
1:56 AM 19.4 °F - 15.8 °F 86% 30.59 in 10.0 mi Calm Calm - N/A   Clear
2:16 AM 19.4 °F - 15.8 °F 86% 30.60 in 10.0 mi Calm Calm - N/A   Clear
2:36 AM 19.4 °F - 14.0 °F 80% 30.60 in 10.0 mi Calm Calm - N/A   Clear
2:56 AM 21.2 °F 14.9 °F 14.0 °F 74% 30.60 in 10.0 mi North 4.6 mph - N/A   Clear
3:16 AM 19.4 °F - 12.2 °F 74% 30.60 in 10.0 mi Calm Calm - N/A   Clear
3:36 AM 24.8 °F - 15.8 °F 69% 30.60 in 10.0 mi Calm Calm - N/A   Clear
3:56 AM 19.4 °F 14.3 °F 12.2 °F 74% 30.60 in 10.0 mi WSW 3.5 mph - N/A   Clear
4:16 AM 19.4 °F - 14.0 °F 80% 30.61 in 10.0 mi Calm Calm - N/A   Clear
4:36 AM 21.2 °F 14.9 °F 14.0 °F 74% 30.61 in 10.0 mi North 4.6 mph - N/A   Clear
4:56 AM 19.4 °F 12.8 °F 12.2 °F 74% 30.61 in 10.0 mi West 4.6 mph - N/A   Clear
5:16 AM 21.2 °F - 12.2 °F 68% 30.61 in 10.0 mi Calm Calm - N/A   Clear
5:36 AM 21.2 °F - 14.0 °F 74% 30.61 in 10.0 mi Calm Calm - N/A   Clear
5:56 AM 21.2 °F - 12.2 °F 68% 30.61 in 10.0 mi Calm Calm - N/A   Clear
6:16 AM 17.6 °F - 10.4 °F 73% 30.61 in 10.0 mi Calm Calm - N/A   Clear
6:36 AM 19.4 °F 12.8 °F 10.4 °F 68% 30.62 in 10.0 mi North 4.6 mph - N/A   Clear
6:56 AM 21.2 °F 16.4 °F 12.2 °F 68% 30.61 in 10.0 mi NNE 3.5 mph - N/A   Clear
7:16 AM 21.2 °F - 10.4 °F 63% 30.62 in 10.0 mi Calm Calm - N/A   Clear
7:36 AM 21.2 °F 14.9 °F 12.2 °F 68% 30.62 in 10.0 mi NNW 4.6 mph - N/A   Clear
7:56 AM 21.2 °F - 10.4 °F 63% 30.63 in 10.0 mi Calm Calm - N/A   Clear
8:16 AM 19.4 °F - 10.4 °F 68% 30.63 in 10.0 mi Calm Calm - N/A   Clear
8:36 AM 17.6 °F - 10.4 °F 73% 30.63 in 10.0 mi Calm Calm - N/A   Clear
8:56 AM 17.6 °F 10.7 °F 12.2 °F 79% 30.63 in 10.0 mi North 4.6 mph - N/A   Clear
9:16 AM 17.6 °F - 14.0 °F 86% 30.63 in 10.0 mi Calm Calm - N/A   Clear
9:36 AM 17.6 °F - 10.4 °F 73% 30.62 in 10.0 mi Calm Calm - N/A   Clear
9:56 AM 19.4 °F - 10.4 °F 68% 30.62 in 10.0 mi Calm Calm - N/A   Clear
10:16 AM 19.4 °F - 10.4 °F 68% 30.62 in 10.0 mi Calm Calm - N/A   Clear
10:36 AM 24.8 °F - 12.2 °F 59% 30.62 in 10.0 mi Calm Calm - N/A   Clear
10:56 AM 24.8 °F - 12.2 °F 59% 30.62 in 10.0 mi Calm Calm - N/A   Clear
11:16 AM 26.6 °F - 17.6 °F 69% 30.62 in 10.0 mi Calm Calm - N/A   Clear
11:36 AM 28.4 °F - 19.4 °F 69% 30.62 in 10.0 mi Calm Calm - N/A   Clear
11:56 AM 30.2 °F - 21.2 °F 69% 30.62 in 10.0 mi Calm Calm - N/A   Clear
12:16 PM 32.0 °F - 24.8 °F 75% 30.62 in 10.0 mi Calm Calm - N/A   Clear
12:36 PM 33.8 °F 27.7 °F 17.6 °F 52% 30.62 in 10.0 mi SE 6.9 mph - N/A   Clear
12:56 PM 33.8 °F 29.6 °F 17.6 °F 52% 30.62 in 10.0 mi SE 4.6 mph - N/A   Clear
1:16 PM 35.6 °F - 17.6 °F 48% 30.62 in 10.0 mi Calm Calm - N/A   Clear
1:36 PM 35.6 °F - 14.0 °F 41% 30.62 in 10.0 mi Calm Calm - N/A   Clear
1:56 PM 33.8 °F 30.8 °F 15.8 °F 48% 30.61 in 10.0 mi NNE 3.5 mph - N/A   Clear
2:16 PM 37.4 °F 32.1 °F 10.4 °F 33% 30.61 in 10.0 mi NNE 6.9 mph - N/A   Clear
2:36 PM 37.4 °F 34.9 °F 8.6 °F 30% 30.61 in 10.0 mi East 3.5 mph - N/A   Clear
2:56 PM 37.4 °F - 8.6 °F 30% 30.61 in 10.0 mi Calm Calm - N/A   Clear
3:16 PM 33.8 °F - 10.4 °F 38% 30.60 in 10.0 mi Calm Calm - N/A   Clear
3:36 PM 35.6 °F 28.0 °F 8.6 °F 33% 30.61 in 10.0 mi NE 10.4 mph - N/A   Clear
3:56 PM 35.6 °F 29.2 °F 8.6 °F 33% 30.61 in 10.0 mi NE 8.1 mph - N/A   Clear
4:16 PM 35.6 °F 30.7 °F 8.6 °F 33% 30.61 in 10.0 mi NE 5.8 mph - N/A   Clear
4:36 PM 35.6 °F 31.7 °F 8.6 °F 33% 30.61 in 10.0 mi NE 4.6 mph - N/A   Clear
4:56 PM 35.6 °F 30.7 °F 8.6 °F 33% 30.61 in 10.0 mi ESE 5.8 mph - N/A   Partly Cloudy
5:16 PM 35.6 °F 29.9 °F 8.6 °F 33% 30.61 in 10.0 mi SE 6.9 mph - N/A   Mostly Cloudy
5:36 PM 33.8 °F 27.0 °F 8.6 °F 35% 30.61 in 10.0 mi SE 8.1 mph - N/A   Overcast
5:56 PM 30.2 °F 21.3 °F 8.6 °F 40% 30.61 in 10.0 mi SE 10.4 mph - N/A   Scattered Clouds
6:16 PM 30.2 °F 24.3 °F 10.4 °F 44% 30.61 in 10.0 mi ESE 5.8 mph - N/A   Clear
6:36 PM 30.2 °F 22.6 °F 10.4 °F 44% 30.61 in 10.0 mi SE 8.1 mph - N/A   Partly Cloudy
6:56 PM 30.2 °F 22.6 °F 10.4 °F 44% 30.61 in 10.0 mi SE 8.1 mph - N/A   Partly Cloudy
7:16 PM 28.4 °F 19.7 °F 10.4 °F 47% 30.61 in 10.0 mi SE 9.2 mph - N/A   Clear
7:36 PM 32.0 °F 26.4 °F 10.4 °F 41% 30.61 in 10.0 mi SE 5.8 mph - N/A   Clear
7:56 PM 30.2 °F 25.4 °F 10.4 °F 44% 30.61 in 10.0 mi ESE 4.6 mph - N/A   Clear
8:16 PM 28.4 °F - 8.6 °F 43% 30.62 in 10.0 mi Calm Calm - N/A   Clear
8:36 PM 28.4 °F 24.6 °F 12.2 °F 51% 30.61 in 10.0 mi ESE 3.5 mph - N/A   Clear
8:56 PM 30.2 °F 25.4 °F 12.2 °F 47% 30.61 in 10.0 mi SE 4.6 mph - N/A   Clear
9:16 PM 30.2 °F 26.7 °F 12.2 °F 47% 30.62 in 10.0 mi East 3.5 mph - N/A   Clear
9:36 PM 28.4 °F 22.2 °F 10.4 °F 47% 30.63 in 10.0 mi ENE 5.8 mph - N/A   Clear
9:56 PM 33.8 °F 30.8 °F 8.6 °F 35% 30.62 in 10.0 mi ENE 3.5 mph - N/A   Clear
10:16 PM 32.0 °F 27.5 °F 8.6 °F 38% 30.62 in 10.0 mi ESE 4.6 mph - N/A   Clear
10:36 PM 28.4 °F 23.3 °F 8.6 °F 43% 30.62 in 10.0 mi SE 4.6 mph - N/A   Clear
10:56 PM 28.4 °F 24.6 °F 8.6 °F 43% 30.62 in 10.0 mi ESE 3.5 mph - N/A   Clear
11:16 PM 24.8 °F 19.1 °F 8.6 °F 50% 30.62 in 10.0 mi SE 4.6 mph - N/A   Clear
11:36 PM 23.0 °F - 8.6 °F 54% 30.62 in 10.0 mi Calm Calm - N/A   Clear
11:56 PM 21.2 °F - 12.2 °F 68% 30.62 in 10.0 mi Calm Calm - N/A   Clear